Regional Weather Roundup
Issued by NWS

Home | Current Version | Previous Version | Graphics & Text | Print | Product List | Glossary On
Versions: 1 2 3 4 5 6 7 8 9 10 11 12 13 14 15 16 17 18 19 20 21 22 23 24 25 26 27 28
000
ASUS45 KSLC 250110
RWRUT

UTAH REGIONAL WEATHER ROUNDUP
NATIONAL WEATHER SERVICE SALT LAKE CITY UT
700 PM MDT SUN JUL 24 2016

UTZ001>011-023>025-250200-

NORTHERN UTAH

CITY           SKY/WX    TMP DP  RH WIND       PRES   REMARKS
BRIGHAM CITY     N/A     92  12   5 CALM      30.04F
HILL AFB       SUNNY     90  27  10 VRB3      30.08F
LOGAN          SUNNY     91  24   9 S3        30.05F
OGDEN          SUNNY     92  25   9 NW5       30.04F
PROVO AIRPORT  MOSUNNY   90  48  24 NW12      30.02F
SALT LAKE CITY MOSUNNY   95  30  10 N10       30.01F
VERNAL         SUNNY     90  31  12 N9        30.05S
WENDOVER       SUNNY     91  28  10 S7        30.02F
HEBER CITY     SUNNY     91  28  10 W9        30.10F

$$

UTZ012>022-026-027-250200-

SOUTHERN/CENTRAL UTAH

CITY           SKY/WX    TMP DP  RH WIND       PRES   REMARKS
BLANDING       PTSUNNY   89  34  14 CALM      30.19F
BRYCE CANYON   CLOUDY    81  31  16 W10       30.30F
CEDAR CITY     MOSUNNY   84  46  26 SE16      30.10F
DELTA          SUNNY     95  25   8 E3        30.02S
MILFORD        PTSUNNY   91  36  14 S9        30.04F
MOAB/CYNLANDS  SUNNY    100  27   7 VRB5      29.95F HX  93
PRICE          SUNNY     92  14   5 W14       30.11S
ST GEORGE      CLEAR    106  46  13 W15       29.87S HX 102
KANAB          CLOUDY    86  43  22 S3        30.10F

$$

REGIONAL REPORTS     COLORADO/ARIZONA

CITY           SKY/WX    TMP DP  RH WIND       PRES   REMARKS
CRAIG, CO      SUNNY     90  30  11 E8        30.15S
GRAND JUNCTION CLOUDY    97  28   8 VRB5      30.00F HX  91
RIFLE          SUNNY     94  31  10 NE6       30.08S
MONTROSE       SUNNY     91  32  12 E3        30.13F
CORTEZ         SUNNY     92  41  17 NE14      30.13S
PAGE, AZ       CLOUDY    93  43  17 NW7       30.04R
GRAND CANYON   TSTM      74  54  49 E17G24    30.31R
KINGMAN        SUNNY     97  51  21 SW17G28   29.97F HX  94
FLAGSTAFF      PTSUNNY   80  45  28 S5        30.28R

$$

REGIONAL REPORTS    NEVADA/IDAHO/WYOMING

CITY           SKY/WX    TMP DP  RH WIND       PRES   REMARKS
LAS VEGAS, NV  SUNNY    109  31   7 S12G20    29.75F HX 101
ELY            MOSUNNY   91  21   8 SW10G17   30.12F
ELKO           PTSUNNY   94  10   4 VRB3      30.04F
POCATELLO, ID  SUNNY     88  23   9 W7        30.08F
BURLEY         SUNNY     86  33  15 VRB5      30.03F
EVANSTON, WY   SUNNY     83  16   8 NW13      30.27S
ROCK SPRINGS   SUNNY     85  15   7 W14G24    30.21S
KEMMERER         N/A    N/A N/A N/A W15       30.28S

$$




USA.gov is the U.S. government's official web portal to all federal, state and local government web resources and services.